| time (UTC) | temp F | wind direction | speed knots | gust knots | rain 1hr in | rain 24hr in | rain mn in | humidity % | barometer mb |
| 20260505032530 | 85 | 110 | 2.6 | 9.6 | 0.00 | 0.00 | 0.00 | 75 | 1007.1 |
| 20260505031958 | 85 | 116 | 4.3 | 9.6 | 0.00 | 0.00 | 0.00 | 75 | 1007.1 |
| 20260505031457 | 85 | 115 | 4.3 | 9.6 | 0.00 | 0.00 | 0.00 | 75 | 1007.1 |
| 20260505030956 | 85 | 117 | 3.5 | 8.7 | 0.00 | 0.00 | 0.00 | 75 | 1007.1 |
| 20260505030454 | 85 | 98 | 1.7 | 7.8 | 0.00 | 0.00 | 0.00 | 75 | 1007.1 |
| 20260505025953 | 85 | 116 | 4.3 | 9.6 | 0.00 | 0.00 | 0.00 | 74 | 1007.1 |
| 20260505025452 | 85 | 127 | 2.6 | 9.6 | 0.00 | 0.00 | 0.00 | 75 | 1007.1 |
| 20260505024951 | 85 | 108 | 1.7 | 10.4 | 0.00 | 0.00 | 0.00 | 75 | 1007.1 |
| 20260505024449 | 85 | 135 | 4.3 | 10.4 | 0.00 | 0.00 | 0.00 | 75 | 1007.1 |
| 20260505023948 | 85 | 122 | 5.2 | 10.4 | 0.00 | 0.00 | 0.00 | 75 | 1007.1 |
| 20260505023447 | 85 | 123 | 5.2 | 10.4 | 0.00 | 0.00 | 0.00 | 75 | 1007.1 |
| 20260505022945 | 85 | 120 | 3.5 | 11.3 | 0.00 | 0.00 | 0.00 | 75 | 1007.1 |
| 20260505022443 | 85 | 123 | 5.2 | 12.2 | 0.00 | 0.00 | 0.00 | 74 | 1007.1 |
| 20260505021943 | 85 | 124 | 6.1 | 12.2 | 0.00 | 0.00 | 0.00 | 75 | 1007.1 |
| 20260505021442 | 85 | 119 | 7.0 | 12.2 | 0.00 | 0.00 | 0.00 | 75 | 1007.1 |
| 20260505020837 | 85 | 128 | 7.0 | 12.2 | 0.00 | 0.00 | 0.00 | 75 | 1007.1 |
| 20260505020336 | 85 | 124 | 6.1 | 13.9 | 0.00 | 0.00 | 0.00 | 75 | 1007.1 |
| 20260505015834 | 85 | 116 | 6.1 | 13.9 | 0.00 | 0.00 | 0.00 | 75 | 1007.1 |
| 20260505015333 | 85 | 117 | 7.0 | 13.9 | 0.00 | 0.00 | 0.00 | 74 | 1007.1 |
| 20260505014833 | 85 | 123 | 6.1 | 13.9 | 0.00 | 0.00 | 0.00 | 75 | 1007.1 |
| 20260505014331 | 85 | 118 | 7.0 | 12.2 | 0.00 | 0.00 | 0.00 | 75 | 1007.1 |
| 20260505013829 | 85 | 118 | 6.1 | 11.3 | 0.00 | 0.00 | 0.00 | 75 | 1007.1 |
| 20260505013328 | 85 | 118 | 6.1 | 12.2 | 0.00 | 0.00 | 0.00 | 75 | 1007.1 |
| 20260505012827 | 85 | 128 | 6.1 | 12.2 | 0.00 | 0.00 | 0.00 | 75 | 1007.1 |
| 20260505012325 | 85 | 135 | 5.2 | 13.0 | 0.00 | 0.00 | 0.00 | 75 | 1007.1 |
| 20260505011823 | 85 | 128 | 7.8 | 13.0 | 0.00 | 0.00 | 0.00 | 75 | 1007.1 |
| 20260505011322 | 85 | 115 | 6.1 | 13.0 | 0.00 | 0.00 | 0.00 | 75 | 1007.1 |
| 20260505010820 | 85 | 125 | 5.2 | 13.9 | 0.00 | 0.00 | 0.00 | 76 | 1007.1 |
| 20260505010319 | 85 | 111 | 4.3 | 13.9 | 0.00 | 0.00 | 0.00 | 76 | 1007.1 |
| 20260505005817 | 85 | 115 | 4.3 | 13.9 | 0.00 | 0.00 | 0.00 | 76 | 1007.1 |
| 20260505005316 | 85 | 130 | 7.8 | 12.2 | 0.00 | 0.00 | 0.00 | 76 | 1007.1 |
| 20260505004814 | 85 | 126 | 4.3 | 13.9 | 0.00 | 0.00 | 0.00 | 77 | 1007.1 |
| 20260505004313 | 85 | 107 | 6.1 | 13.9 | 0.00 | 0.00 | 0.00 | 77 | 1007.1 |
| 20260505003812 | 85 | 116 | 5.2 | 13.9 | 0.00 | 0.00 | 0.00 | 77 | 1007.1 |
| 20260505003310 | 85 | 129 | 7.0 | 13.9 | 0.00 | 0.00 | 0.00 | 77 | 1007.1 |
| 20260505002738 | 85 | 117 | 5.2 | 13.0 | 0.00 | 0.00 | 0.00 | 77 | 1007.1 |
| 20260505002237 | 85 | 117 | 7.0 | 13.0 | 0.00 | 0.00 | 0.00 | 77 | 1007.1 |
| 20260505001704 | 85 | 132 | 7.0 | 13.0 | 0.00 | 0.00 | 0.00 | 76 | 1007.1 |
| 20260505001203 | 86 | 116 | 3.5 | 11.3 | 0.00 | 0.00 | 0.00 | 75 | 1007.1 |
| 20260505000702 | 86 | 124 | 6.1 | 11.3 | 0.00 | 0.00 | 0.00 | 74 | 1007.1 |
| 20260505000129 | 87 | 126 | 5.2 | 9.6 | 0.00 | 0.00 | 0.00 | 73 | 1007.1 |
| 20260504235627 | 87 | 118 | 5.2 | 9.6 | 0.00 | 0.00 | 0.00 | 73 | 1007.1 |
| 20260504235055 | 87 | 106 | 1.7 | 10.4 | 0.00 | 0.00 | 0.00 | 74 | 1007.1 |
| 20260504234554 | 87 | 122 | 4.3 | 10.4 | 0.00 | 0.00 | 0.00 | 73 | 1006.8 |
| 20260504234053 | 88 | 120 | 4.3 | 10.4 | 0.00 | 0.00 | 0.00 | 73 | 1006.8 |
| 20260504233520 | 88 | 107 | 4.3 | 10.4 | 0.00 | 0.00 | 0.00 | 72 | 1006.8 |
| 20260504233019 | 89 | 121 | 6.1 | 10.4 | 0.00 | 0.00 | 0.00 | 71 | 1006.8 |
| 20260504232518 | 89 | 103 | 1.7 | 5.2 | 0.00 | 0.00 | 0.00 | 70 | 1006.4 |
| 20260504232018 | 90 | 110 | 1.7 | 5.2 | 0.00 | 0.00 | 0.00 | 70 | 1006.4 |
| 20260504231345 | 90 | 105 | 2.6 | 7.0 | 0.00 | 0.00 | 0.00 | 69 | 1006.4 |
| 20260504230844 | 90 | 104 | 1.7 | 7.0 | 0.00 | 0.00 | 0.00 | 69 | 1006.4 |
| 20260504230343 | 90 | 107 | 2.6 | 7.0 | 0.00 | 0.00 | 0.00 | 69 | 1009.8 |
| 20260504225809 | 90 | 109 | 1.7 | 7.0 | 0.00 | 0.00 | 0.00 | 69 | 1009.8 |
| 20260504225308 | 91 | 97 | 2.6 | 7.0 | 0.00 | 0.00 | 0.00 | 69 | 1009.8 |
| 20260504224807 | 91 | 80 | 0.9 | 2.6 | 0.00 | 0.00 | 0.00 | 69 | 1009.8 |
| 20260504224306 | 91 | 80 | 0.0 | 2.6 | 0.00 | 0.00 | 0.00 | 69 | 1009.8 |
| 20260504223631 | 92 | 80 | 0.0 | 2.6 | 0.00 | 0.00 | 0.00 | 69 | 1009.8 |
| 20260504223130 | 92 | 102 | 0.9 | 0.9 | 0.00 | 0.00 | 0.00 | 68 | 1009.8 |
| 20260504222628 | 92 | 54 | 0.9 | 0.9 | 0.00 | 0.00 | 0.00 | 68 | 1009.8 |
| 20260504222127 | 92 | 108 | 0.9 | 0.9 | 0.00 | 0.00 | 0.00 | 67 | 1009.8 |
| 20260504221625 | 92 | 99 | 0.0 | 0.9 | 0.00 | 0.00 | 0.00 | 66 | 1009.8 |
| 20260504221053 | 92 | 98 | 0.9 | 0.9 | 0.00 | 0.00 | 0.00 | 67 | 1009.8 |
| 20260504220521 | 92 | 105 | 0.0 | 0.9 | 0.00 | 0.00 | 0.00 | 67 | 1009.8 |
| 20260504220020 | 91 | 104 | 0.0 | 0.9 | 0.00 | 0.00 | 0.00 | 67 | 1009.8 |
| 20260504215447 | 91 | 104 | 0.9 | 0.9 | 0.00 | 0.00 | 0.00 | 67 | 1009.8 |
| 20260504214945 | 91 | 103 | 0.9 | 0.9 | 0.00 | 0.00 | 0.00 | 66 | 1009.8 |
| 20260504214444 | 91 | 98 | 0.0 | 0.9 | 0.00 | 0.00 | 0.00 | 64 | 1009.8 |
| 20260504213911 | 91 | 137 | 0.9 | 3.5 | 0.00 | 0.00 | 0.00 | 64 | 1009.8 |
| 20260504213410 | 91 | 127 | 0.0 | 3.5 | 0.00 | 0.00 | 0.00 | 63 | 1009.8 |
| 20260504212909 | 91 | 127 | 0.0 | 3.5 | 0.00 | 0.00 | 0.00 | 63 | 1009.8 |
| 20260504212408 | 91 | 127 | 1.7 | 3.5 | 0.00 | 0.00 | 0.00 | 65 | 1009.8 |
| 20260504211907 | 91 | 127 | 1.7 | 2.6 | 0.00 | 0.00 | 0.00 | 65 | 1009.8 |
| 20260504211406 | 91 | 125 | 0.9 | 1.7 | 0.00 | 0.00 | 0.00 | 64 | 1009.8 |
| 20260504210904 | 90 | 126 | 0.0 | 1.7 | 0.00 | 0.00 | 0.00 | 67 | 1009.8 |
| 20260504210402 | 91 | 120 | 0.9 | 0.9 | 0.00 | 0.00 | 0.00 | 66 | 1009.8 |
| 20260504205901 | 91 | 111 | 0.9 | 0.9 | 0.00 | 0.00 | 0.00 | 67 | 1009.8 |
| 20260504205328 | 91 | 110 | 0.9 | 0.9 | 0.00 | 0.01 | 0.00 | 66 | 1009.8 |
| 20260504204827 | 90 | 110 | 0.0 | 1.7 | 0.00 | 0.01 | 0.00 | 66 | 1009.8 |
| 20260504204254 | 90 | 110 | 0.9 | 1.7 | 0.00 | 0.01 | 0.00 | 66 | 1009.8 |
| 20260504203753 | 91 | 79 | 0.9 | 1.7 | 0.00 | 0.01 | 0.00 | 66 | 1009.8 |
| 20260504203251 | 91 | 70 | 0.0 | 1.7 | 0.00 | 0.01 | 0.00 | 65 | 1009.8 |
| 20260504202750 | 91 | 51 | 0.9 | 1.7 | 0.00 | 0.01 | 0.00 | 66 | 1009.8 |
| 20260504202249 | 90 | 104 | 0.9 | 2.6 | 0.00 | 0.01 | 0.00 | 65 | 1009.8 |
| 20260504201747 | 90 | 86 | 0.9 | 2.6 | 0.00 | 0.01 | 0.00 | 65 | 1009.8 |
| 20260504201246 | 90 | 37 | 0.0 | 2.6 | 0.00 | 0.01 | 0.00 | 68 | 1009.8 |
| 20260504200745 | 90 | 7 | 1.7 | 2.6 | 0.00 | 0.01 | 0.00 | 68 | 1009.8 |
| 20260504200244 | 90 | 91 | 0.9 | 2.6 | 0.00 | 0.01 | 0.00 | 68 | 1009.8 |
| 20260504195743 | 91 | 109 | 0.9 | 2.6 | 0.00 | 0.01 | 0.00 | 68 | 1009.8 |
| 20260504195241 | 91 | 115 | 0.9 | 3.5 | 0.00 | 0.01 | 0.00 | 67 | 1009.8 |
| 20260504194740 | 91 | 105 | 0.0 | 3.5 | 0.00 | 0.01 | 0.00 | 68 | 1009.8 |
| 20260504194238 | 91 | 110 | 0.9 | 3.5 | 0.00 | 0.01 | 0.00 | 68 | 1009.8 |
| 20260504193737 | 90 | 118 | 0.9 | 3.5 | 0.00 | 0.01 | 0.00 | 70 | 1009.8 |
| 20260504193235 | 89 | 120 | 1.7 | 3.5 | 0.00 | 0.01 | 0.00 | 71 | 1009.8 |
| 20260504192734 | 89 | 146 | 1.7 | 3.5 | 0.00 | 0.01 | 0.00 | 71 | 1009.8 |
| 20260504192233 | 89 | 157 | 2.6 | 3.5 | 0.00 | 0.01 | 0.00 | 71 | 1009.8 |
| 20260504191731 | 90 | 156 | 2.6 | 3.5 | 0.00 | 0.01 | 0.00 | 70 | 1009.8 |
| 20260504191230 | 90 | 117 | 1.7 | 3.5 | 0.00 | 0.01 | 0.00 | 71 | 1009.8 |
| 20260504190728 | 90 | 108 | 0.9 | 3.5 | 0.00 | 0.01 | 0.00 | 70 | 1009.8 |
| 20260504190226 | 90 | 124 | 1.7 | 3.5 | 0.00 | 0.01 | 0.00 | 70 | 1009.8 |
| 20260504185725 | 89 | 124 | 1.7 | 3.5 | 0.00 | 0.01 | 0.00 | 70 | 1009.8 |
| 20260504185224 | 89 | 107 | 1.7 | 3.5 | 0.00 | 0.01 | 0.00 | 71 | 1009.8 |
| 20260504184723 | 89 | 157 | 2.6 | 4.3 | 0.00 | 0.01 | 0.00 | 71 | 1009.8 |
| 20260504184222 | 89 | 170 | 2.6 | 4.3 | 0.00 | 0.01 | 0.00 | 70 | 1009.8 |
| 20260504183721 | 89 | 132 | 1.7 | 4.3 | 0.00 | 0.01 | 0.00 | 70 | 1009.8 |
| 20260504183219 | 89 | 120 | 1.7 | 4.3 | 0.00 | 0.01 | 0.00 | 71 | 1009.8 |
| 20260504182717 | 89 | 140 | 2.6 | 4.3 | 0.00 | 0.01 | 0.00 | 71 | 1009.8 |
| 20260504182215 | 89 | 167 | 2.6 | 4.3 | 0.00 | 0.01 | 0.00 | 71 | 1009.8 |
| 20260504181714 | 89 | 184 | 2.6 | 4.3 | 0.00 | 0.01 | 0.00 | 71 | 1009.8 |
| 20260504181141 | 89 | 181 | 2.6 | 4.3 | 0.00 | 0.01 | 0.00 | 71 | 1009.8 |
| 20260504180640 | 89 | 166 | 2.6 | 5.2 | 0.00 | 0.01 | 0.00 | 72 | 1009.8 |
| 20260504180138 | 89 | 167 | 2.6 | 5.2 | 0.00 | 0.01 | 0.00 | 73 | 1009.8 |
| 20260504175636 | 89 | 144 | 2.6 | 5.2 | 0.00 | 0.01 | 0.00 | 73 | 1009.8 |
| 20260504175104 | 88 | 174 | 2.6 | 5.2 | 0.00 | 0.01 | 0.00 | 73 | 1009.8 |
| 20260504174603 | 88 | 178 | 3.5 | 5.2 | 0.00 | 0.01 | 0.00 | 73 | 1009.8 |
| 20260504174102 | 88 | 134 | 2.6 | 5.2 | 0.00 | 0.01 | 0.00 | 73 | 1009.8 |
| 20260504173601 | 88 | 146 | 3.5 | 6.1 | 0.00 | 0.01 | 0.00 | 74 | 1009.8 |
| 20260504173100 | 88 | 126 | 2.6 | 6.1 | 0.00 | 0.01 | 0.00 | 74 | 1009.8 |
| 20260504172527 | 88 | 150 | 3.5 | 6.1 | 0.00 | 0.01 | 0.00 | 74 | 1009.8 |
| 20260504171954 | 88 | 146 | 3.5 | 6.1 | 0.00 | 0.01 | 0.00 | 75 | 1009.8 |
| 20260504171452 | 87 | 127 | 2.6 | 5.2 | 0.00 | 0.01 | 0.00 | 75 | 1009.8 |
| 20260504170952 | 87 | 171 | 4.3 | 5.2 | 0.00 | 0.01 | 0.00 | 76 | 1009.8 |
| 20260504170420 | 87 | 181 | 4.3 | 5.2 | 0.00 | 0.01 | 0.00 | 77 | 1009.8 |
| 20260504160303 | 87 | 153 | 2.6 | 5.2 | 0.00 | 0.01 | 0.00 | 77 | 1009.8 |
| 20260504150718 | 91 | 158 | 3.5 | 4.3 | 0.00 | 0.01 | 0.00 | 67 | 1009.8 |
| 20260504150216 | 91 | 115 | 1.7 | 4.3 | 0.00 | 0.01 | 0.00 | 66 | 1009.8 |
| 20260504141029 | 93 | 103 | 0.0 | 1.7 | 0.00 | 0.01 | 0.00 | 64 | 1009.8 |
| 20260504140528 | 92 | 105 | 0.9 | 1.7 | 0.00 | 0.01 | 0.00 | 65 | 1009.8 |
| 20260504130412 | 86 | 88 | 0.0 | 0.0 | 0.00 | 0.01 | 0.00 | 72 | 1009.8 |
| 20260504081905 | 83 | 96 | 3.5 | 9.6 | 0.00 | 0.01 | 0.01 | 76 | 956.3 |
| 20260504081403 | 83 | 103 | 5.2 | 9.6 | 0.00 | 0.01 | 0.01 | 75 | 956.3 |
| 20260504080903 | 83 | 114 | 5.2 | 12.2 | 0.00 | 0.01 | 0.01 | 76 | 956.3 |
| 20260504080401 | 83 | 114 | 4.3 | 12.2 | 0.00 | 0.01 | 0.01 | 76 | 956.3 |
| 20260504070217 | 81 | 89 | 2.6 | 7.0 | 0.00 | 0.01 | 0.01 | 80 | 956.3 |
| 20260504060132 | 83 | 53 | 0.0 | 2.6 | 0.00 | 0.01 | 0.01 | 79 | 1008.1 |
| 20260504050415 | 83 | 103 | 3.5 | 11.3 | 0.00 | 0.01 | 0.01 | 79 | 1008.1 |
| 20260504045913 | 83 | 116 | 4.3 | 12.2 | 0.00 | 0.01 | 0.01 | 79 | 1008.1 |
| 20260504045340 | 83 | 113 | 5.2 | 13.9 | 0.00 | 0.01 | 0.01 | 79 | 1008.1 |
| 20260504044840 | 83 | 112 | 6.1 | 13.9 | 0.00 | 0.01 | 0.01 | 79 | 1008.1 |
| 20260504044339 | 83 | 106 | 5.2 | 13.9 | 0.00 | 0.01 | 0.01 | 79 | 1008.1 |
| 20260504043837 | 83 | 109 | 4.3 | 13.9 | 0.00 | 0.01 | 0.01 | 79 | 1008.1 |
| 20260504043337 | 83 | 120 | 7.0 | 12.2 | 0.00 | 0.01 | 0.01 | 79 | 1008.1 |
| 20260504042835 | 83 | 113 | 5.2 | 13.9 | 0.00 | 0.01 | 0.01 | 80 | 1008.5 |
| 20260504042304 | 83 | 91 | 4.3 | 13.9 | 0.00 | 0.01 | 0.01 | 79 | 1008.5 |
| 20260504041802 | 83 | 120 | 4.3 | 13.9 | 0.00 | 0.01 | 0.01 | 79 | 1008.5 |
| 20260504041301 | 83 | 117 | 4.3 | 14.8 | 0.00 | 0.01 | 0.01 | 79 | 1008.5 |
| 20260504040729 | 83 | 119 | 4.3 | 14.8 | 0.00 | 0.01 | 0.01 | 79 | 1008.5 |
| 20260504040157 | 83 | 104 | 5.2 | 18.2 | 0.00 | 0.01 | 0.01 | 79 | 1008.5 |
| 20260504035655 | 83 | 116 | 7.0 | 18.2 | 0.00 | 0.01 | 0.01 | 79 | 1008.5 |
| 20260504035154 | 83 | 125 | 6.1 | 18.2 | 0.00 | 0.01 | 0.01 | 79 | 1008.5 |
| 20260504034622 | 84 | 134 | 7.8 | 18.2 | 0.00 | 0.01 | 0.01 | 78 | 1008.1 |
| 20260504034049 | 84 | 114 | 7.8 | 18.2 | 0.00 | 0.01 | 0.01 | 78 | 1008.8 |
| 20260504033547 | 83 | 128 | 8.7 | 18.2 | 0.00 | 0.01 | 0.01 | 78 | 1008.8 |
| 20260504033046 | 84 | 136 | 7.8 | 21.7 | 0.00 | 0.01 | 0.01 | 78 | 1008.8 |